| time (UTC) | temp F | wind direction | speed knots | gust knots | rain 1hr in | rain 24hr in | rain mn in | humidity % | barometer mb |
| 20260503213047 | 71 | 230 | 0.9 | 3.5 | 0.00 | 0.01 | 0.01 | 42 | 1017.0 |
| 20260503211559 | 71 | 257 | 0.9 | 5.2 | 0.00 | 0.01 | 0.01 | 43 | 1017.0 |
| 20260503210042 | 71 | 298 | 1.7 | 7.0 | 0.00 | 0.01 | 0.01 | 43 | 1017.1 |
| 20260503204541 | 70 | 189 | 2.6 | 5.2 | 0.00 | 0.01 | 0.01 | 42 | 1017.2 |
| 20260503203040 | 70 | 246 | 0.9 | 4.3 | 0.00 | 0.01 | 0.01 | 41 | 1017.3 |
| 20260503201540 | 70 | 246 | 1.7 | 6.1 | 0.00 | 0.01 | 0.01 | 45 | 1017.6 |
| 20260503200039 | 70 | 195 | 2.6 | 7.0 | 0.00 | 0.01 | 0.01 | 41 | 1017.8 |
| 20260503194539 | 70 | 243 | 0.9 | 3.5 | 0.00 | 0.01 | 0.01 | 42 | 1018.1 |
| 20260503193045 | 70 | 240 | 2.6 | 7.8 | 0.00 | 0.01 | 0.01 | 41 | 1018.5 |
| 20260503191538 | 69 | 224 | 1.7 | 6.1 | 0.00 | 0.01 | 0.01 | 42 | 1018.8 |
| 20260503190037 | 68 | 292 | 0.0 | 5.2 | 0.00 | 0.01 | 0.01 | 44 | 1019.0 |
| 20260503184534 | 69 | 246 | 0.9 | 3.5 | 0.00 | 0.01 | 0.01 | 44 | 1019.4 |
| 20260503183038 | 67 | 215 | 0.9 | 7.0 | 0.00 | 0.01 | 0.01 | 45 | 1019.7 |
| 20260503181601 | 67 | 320 | 0.9 | 8.7 | 0.00 | 0.01 | 0.01 | 44 | 1019.8 |
| 20260503180136 | 67 | 219 | 0.9 | 6.1 | 0.00 | 0.01 | 0.01 | 46 | 1019.9 |
| 20260503174529 | 67 | 257 | 1.7 | 6.1 | 0.00 | 0.02 | 0.01 | 50 | 1020.0 |
| 20260503173043 | 67 | 265 | 0.9 | 7.0 | 0.00 | 0.02 | 0.01 | 47 | 1020.1 |
| 20260503171526 | 65 | 263 | 1.7 | 6.1 | 0.00 | 0.02 | 0.01 | 49 | 1020.3 |
| 20260503150107 | 59 | 151 | 0.0 | 2.6 | 0.00 | 0.05 | 0.01 | 60 | 1021.4 |
| 20260503081600 | 45 | 323 | 0.0 | 0.0 | 0.00 | 0.56 | 0.00 | 93 | 1017.7 |
| 20260503071555 | 46 | 323 | 0.0 | 0.0 | 0.00 | 0.59 | 0.00 | 92 | 1017.3 |
| 20260503054537 | 49 | 323 | 0.0 | 0.0 | 0.00 | 0.59 | 0.00 | 92 | 1017.0 |
| 20260503053040 | 49 | 323 | 0.0 | 0.0 | 0.00 | 0.59 | 0.00 | 92 | 1016.9 |
| 20260503051534 | 50 | 323 | 0.0 | 0.0 | 0.00 | 0.59 | 0.00 | 92 | 1016.8 |
| 20260503050034 | 50 | 323 | 0.0 | 0.0 | 0.00 | 0.59 | 0.00 | 92 | 1016.7 |
| 20260503044600 | 51 | 323 | 0.0 | 0.0 | 0.00 | 0.59 | 0.00 | 92 | 1016.3 |
| 20260503043026 | 51 | 323 | 0.0 | 0.0 | 0.00 | 0.59 | 0.00 | 93 | 1016.1 |
| 20260503041524 | 52 | 323 | 0.0 | 0.0 | 0.00 | 0.59 | 0.00 | 93 | 1015.8 |
| 20260503040123 | 52 | 323 | 0.0 | 0.0 | 0.00 | 0.59 | 0.00 | 93 | 1015.8 |
| 20260503034522 | 52 | 323 | 0.0 | 0.0 | 0.00 | 0.59 | 0.59 | 93 | 1016.0 |
| 20260503033021 | 52 | 323 | 0.0 | 0.0 | 0.00 | 0.59 | 0.59 | 93 | 1016.4 |
| 20260503031520 | 52 | 323 | 0.0 | 0.0 | 0.00 | 0.59 | 0.59 | 93 | 1016.2 |
| 20260503030019 | 52 | 323 | 0.0 | 0.0 | 0.00 | 0.59 | 0.59 | 92 | 1016.2 |
| 20260503024519 | 52 | 323 | 0.0 | 0.0 | 0.00 | 0.59 | 0.59 | 92 | 1016.3 |
| 20260503023017 | 52 | 323 | 0.0 | 0.0 | 0.00 | 0.59 | 0.59 | 91 | 1016.1 |
| 20260503021519 | 52 | 323 | 0.0 | 0.0 | 0.00 | 0.59 | 0.59 | 91 | 1015.6 |
| 20260503020019 | 52 | 323 | 0.0 | 0.0 | 0.00 | 0.59 | 0.59 | 91 | 1015.2 |
| 20260503014510 | 52 | 323 | 0.0 | 0.0 | 0.00 | 0.59 | 0.59 | 90 | 1014.9 |
| 20260503013009 | 52 | 323 | 0.0 | 0.0 | 0.00 | 0.59 | 0.59 | 89 | 1014.7 |
| 20260503011507 | 53 | 323 | 0.0 | 0.0 | 0.00 | 0.59 | 0.59 | 89 | 1014.4 |
| 20260503010005 | 53 | 323 | 0.0 | 0.0 | 0.00 | 0.59 | 0.59 | 88 | 1014.3 |
| 20260503004504 | 53 | 323 | 0.0 | 0.0 | 0.00 | 0.59 | 0.59 | 88 | 1014.1 |
| 20260503003002 | 54 | 323 | 0.0 | 0.0 | 0.00 | 0.59 | 0.59 | 87 | 1013.9 |
| 20260503001503 | 54 | 323 | 0.0 | 0.0 | 0.00 | 0.59 | 0.59 | 86 | 1013.6 |
| 20260503000106 | 54 | 323 | 0.0 | 0.0 | 0.00 | 0.59 | 0.59 | 86 | 1013.5 |
| 20260502234618 | 54 | 323 | 0.0 | 0.0 | 0.00 | 0.59 | 0.59 | 87 | 1013.3 |
| 20260502233059 | 55 | 323 | 0.0 | 0.0 | 0.00 | 0.59 | 0.59 | 86 | 1013.2 |
| 20260502231559 | 56 | 323 | 0.0 | 1.7 | 0.00 | 0.59 | 0.59 | 83 | 1013.0 |
| 20260502230059 | 58 | 323 | 0.0 | 2.6 | 0.00 | 0.59 | 0.59 | 77 | 1012.9 |
| 20260502224602 | 59 | 119 | 0.0 | 2.6 | 0.00 | 0.59 | 0.59 | 76 | 1012.9 |
| 20260502223105 | 58 | 30 | 0.0 | 1.7 | 0.00 | 0.59 | 0.59 | 78 | 1013.1 |
| 20260502221601 | 59 | 26 | 0.0 | 2.6 | 0.00 | 0.59 | 0.59 | 77 | 1013.1 |
| 20260502214613 | 56 | 52 | 0.0 | 2.6 | 0.00 | 0.59 | 0.59 | 80 | 1012.9 |